sat.trackr.live / text

‹ back to catalog

STARLINK-5511

NORAD 57252 · 2023-094AL

PAYLOAD ACTIVE UNKNOWN

§ Identity

Operator
Country
US
Launch date
2023-07-07
Launch site
AFWTR
Launch vehicle
Mass (kg)
RCS (m²)

Purposes: comms

External: N2YO · Heavens-Above · Gunter

§ Orbital elements

Epoch: 2026-09-19T13:20:45.506400Z

Period
94.27 min
Inclination
42.9993°
Eccentricity
0.0000799
Mean motion
15.27563825 rev/d
Perigee alt
482.5 km
Apogee alt
483.6 km
Semi-major
6,861.2 km
B*
-2.8871e-5
RAAN
4.6610°
Arg perigee
217.0767°
Mean anomaly
143.0029°
Rev number
17,689

§ Raw data

STARLINK-55111 57252U 23094AL  26262.55608225 -.00001056  00000+0 -28871-4 0  99932 57252  42.9993   4.6610 0000799 217.0767 143.0029 15.27563825176895

JSON: /api/v1/satellites/57252 · /tle

For live sub-satellite position, see the globe view (requires WebGL).

§ Visibility from observer

Set your observer location to see the next 7 days of passes ≥ 10°. The values pass through the URL so the page stays shareable.

No JS? Fill the form by hand. The geolocation button needs JavaScript.